Location: Chimay
(50.0486°N, 4.3171°E)
Time: 03:40:05
(UTC+00:00)

Cosmos 1356 - Pass Details

Date: 08 August 2020
Orbit: 444 x 445 km, 81.1° (Epoch: 19 September)

Event Time Altitude Azimuth Distance (km) Brightness Sun altitude
Exits shadow 22:41:38 48° 36° (NE) 595 4.1 -22.5°
Drops below altitude 10° 22:44:17 10° 17° (NNE) 1,579 6.9 -22.7°
Sets 22:46:21 0° 15° (NNE) 2,456 8.1 -22.8°
